Weather reports worldwide

Advertisment
Roma/Ciampino, Italy (16239): temperature & dewpoint: 13.07.2018 13:00:00 - 19.07.2018 13:00:00 (CEST)Roma/Ciampino, Italy (16239): wind speed: 13.07.2018 13:00:00 - 19.07.2018 13:00:00 (CEST)Roma/Ciampino, Italy (16239): wind direction: 13.07.2018 13:00:00 - 19.07.2018 13:00:00 (CEST)Roma/Ciampino, Italy (16239): reduced air pressure: 13.07.2018 13:00:00 - 19.07.2018 13:00:00 (CEST)Roma/Ciampino, Italy (16239): visibility: 13.07.2018 13:00:00 - 19.07.2018 13:00:00 (CEST)Roma/Ciampino, Italy (16239): precipitation: 13.07.2018 13:00:00 - 19.07.2018 13:00:00 (CEST)
Date & Time tt [°C] td [°C] ff [km/h] ff [kn] dd ppp [hPa] vv [km] rr [mm]
19.07.2018 13:00:00 33,0 14,0 13 7 WSW - 10 -
19.07.2018 12:00:00 32,0 13,0 8 4 - - 10 -
19.07.2018 11:00:00 30,6 13,6 5 3 - 1014,3 10 0,0
19.07.2018 10:00:00 27,0 16,0 5 3 NNE - 10 -
19.07.2018 09:00:00 25,0 15,0 4 2 - - 10 -
19.07.2018 08:00:00 23,0 14,3 4 2 - 1014,4 10 -
19.07.2018 07:00:00 21,0 16,0 4 2 - - 10 -
19.07.2018 06:00:00 20,0 20,0 5 3 SE - 10 -
19.07.2018 05:00:00 19,8 17,9 9 5 ESE 1014,8 10 0,0
19.07.2018 04:00:00 20,0 17,0 8 4 SE - 10 -
19.07.2018 03:00:00 20,0 15,0 5 3 SE - 10 -
19.07.2018 02:00:00 20,6 11,5 4 2 SE 1015,1 10 -
19.07.2018 01:00:00 22,0 13,0 5 3 E - 10 -
19.07.2018 00:00:00 23,0 12,0 8 4 ESE - 10 -
18.07.2018 23:00:00 23,2 12,5 5 3 ESE 1014,7 10 0,0
18.07.2018 22:00:00 25,0 15,0 4 2 - - 10 -
18.07.2018 21:00:00 27,0 15,0 5 3 SSW - 10 -
18.07.2018 20:00:00 29,1 14,2 11 6 WSW 1014,3 10 -
18.07.2018 19:00:00 30,0 14,0 15 8 W - 10 -
18.07.2018 18:00:00 31,0 15,0 18 10 W - 10 -
18.07.2018 17:00:00 31,6 15,3 18 10 W 1014,3 10 0,0
18.07.2018 16:00:00 32,0 15,0 18 10 W - 10 -
18.07.2018 15:00:00 33,0 16,0 16 9 WNW - 10 -
18.07.2018 14:00:00 31,8 10,4 11 6 NNW 1014,8 10 -
18.07.2018 13:00:00 32,0 10,0 9 5 NW - 10 -
18.07.2018 12:00:00 30,0 11,0 8 4 NNE - 10 -
18.07.2018 11:00:00 29,3 12,7 8 4 NNE 1015,3 10 0,0
18.07.2018 10:00:00 27,0 16,0 8 4 N - 10 -
18.07.2018 09:00:00 24,0 17,0 9 5 NNE - 10 -
18.07.2018 08:00:00 22,8 15,4 9 5 NNE 1014,7 10 -
18.07.2018 07:00:00 20,0 16,0 9 5 NNE - 10 -
18.07.2018 06:00:00 - - - - - - - -
18.07.2018 05:00:00 - - - - - - - -
18.07.2018 04:00:00 20,0 16,0 4 2 NE - 10 -
18.07.2018 03:00:00 20,0 16,0 4 2 E - 10 -
18.07.2018 02:00:00 21,1 16,6 4 2 E 1013,7 10 -
18.07.2018 01:00:00 21,0 18,0 5 3 ESE - 10 -
18.07.2018 00:00:00 22,0 18,0 8 4 SE - 10 -
17.07.2018 23:00:00 23,7 18,7 4 2 - 1013,1 10 0,0
17.07.2018 22:00:00 25,0 19,0 4 2 - - 10 -
17.07.2018 21:00:00 26,0 18,0 11 6 W - 10 -
17.07.2018 20:00:00 27,3 18,9 16 9 W 1011,3 10 -
17.07.2018 19:00:00 29,0 19,0 18 10 W - 10 -
17.07.2018 18:00:00 30,0 18,0 21 11 W - 10 -
17.07.2018 17:00:00 30,3 18,6 21 11 W 1011,0 10 0,0
17.07.2018 16:00:00 30,0 19,0 18 10 W - 10 -
17.07.2018 15:00:00 30,0 16,0 15 8 NW - 10 -
17.07.2018 14:00:00 29,0 16,3 16 9 NW 1010,9 10 -
17.07.2018 13:00:00 27,0 18,0 15 8 NNW - 10 -
17.07.2018 12:00:00 26,0 18,0 13 7 NNW - 10 -
17.07.2018 11:00:00 24,7 19,1 15 8 N 1010,6 10 0,0
17.07.2018 10:00:00 24,0 20,0 13 7 NNW - 10 -
17.07.2018 09:00:00 24,0 19,0 8 4 N - 10 -
17.07.2018 08:00:00 22,1 20,0 2 1 - 1009,3 10 -
17.07.2018 07:00:00 20,0 19,0 8 4 ENE - 10 -
17.07.2018 06:00:00 21,0 19,0 9 5 NE - 8 -
17.07.2018 05:00:00 21,0 19,0 4 2 - - 10 -
17.07.2018 04:00:00 23,0 19,0 13 7 S - 10 -
17.07.2018 03:00:00 22,0 19,0 16 9 SSE - 10 -
17.07.2018 02:00:00 22,4 18,3 16 9 SE 1010,2 10 -
17.07.2018 01:00:00 21,0 18,0 9 5 ENE - 10 -
17.07.2018 00:00:00 21,0 19,0 13 7 NE - 10 -
16.07.2018 23:00:00 21,8 19,6 9 5 NNE 1013,5 9 0,0
16.07.2018 22:00:00 23,0 20,0 13 7 S - 9 -
16.07.2018 21:00:00 27,0 15,0 18 10 S - 8 -
16.07.2018 20:00:00 28,2 15,1 18 10 SSE 1010,9 10 -
16.07.2018 19:00:00 29,0 16,0 13 7 S - 10 -
16.07.2018 18:00:00 - - - - - - - -
16.07.2018 17:00:00 - - - - - - - -
16.07.2018 16:00:00 28,0 17,0 16 9 SE - 10 -
16.07.2018 15:00:00 29,0 18,0 16 9 SSE - 10 -
16.07.2018 14:00:00 27,3 19,2 11 6 SW 1016,6 10 -
16.07.2018 13:00:00 28,0 21,0 15 8 SW - 10 -
16.07.2018 12:00:00 31,0 15,0 9 5 SW - 10 -
16.07.2018 11:00:00 29,9 14,9 4 2 - 1014,7 10 0,0
16.07.2018 10:00:00 28,0 16,0 5 3 NE - 10 -
16.07.2018 09:00:00 26,0 20,0 9 5 S - 10 -
16.07.2018 08:00:00 24,9 21,5 11 6 S 1015,2 10 -
16.07.2018 07:00:00 24,0 22,0 8 4 SSE - 6 -
16.07.2018 06:00:00 22,0 16,0 5 3 SE - 7 -
16.07.2018 05:00:00 22,0 16,4 5 3 S 1014,2 10 0,0
16.07.2018 04:00:00 22,0 15,0 5 3 SE - 10 -
16.07.2018 03:00:00 22,0 16,0 8 4 E - 10 -
16.07.2018 02:00:00 22,6 18,7 5 3 ESE 1014,9 10 -
16.07.2018 01:00:00 23,0 18,0 4 2 - - 10 -
16.07.2018 00:00:00 23,0 18,0 8 4 SE - 10 -
15.07.2018 23:00:00 24,6 18,6 8 4 SSW 1015,0 10 0,0
15.07.2018 22:00:00 26,0 18,0 4 2 - - 10 -
15.07.2018 21:00:00 27,0 18,0 5 3 SW - 10 -
15.07.2018 20:00:00 28,9 16,7 11 6 W 1013,9 10 -
15.07.2018 19:00:00 32,0 12,0 13 7 W - 10 -
15.07.2018 18:00:00 33,0 11,0 13 7 WSW - 10 -
15.07.2018 17:00:00 33,0 11,1 15 8 W 1013,6 10 0,0
15.07.2018 16:00:00 33,0 11,0 15 8 W - 10 -
15.07.2018 15:00:00 33,0 13,0 16 9 W - 10 -
15.07.2018 14:00:00 32,5 15,5 11 6 WNW 1013,8 10 -
15.07.2018 13:00:00 33,0 15,0 9 5 W - 10 -
15.07.2018 12:00:00 31,0 18,0 8 4 W - 10 -
15.07.2018 11:00:00 30,7 15,2 9 5 SSW 1014,6 10 0,0
15.07.2018 10:00:00 29,0 15,0 9 5 S - 10 -
15.07.2018 09:00:00 27,0 18,0 5 3 - - 10 -
15.07.2018 08:00:00 25,5 17,5 2 1 - 1014,3 10 -
15.07.2018 07:00:00 22,0 17,0 2 1 - - 10 -
15.07.2018 06:00:00 22,0 17,0 4 2 - - 10 -
15.07.2018 05:00:00 22,5 16,5 5 3 N 1013,5 10 0,0
15.07.2018 04:00:00 23,0 16,0 4 2 E - 10 -
15.07.2018 03:00:00 - - - - - - - -
15.07.2018 02:00:00 23,9 16,6 2 1 - 1014,1 10 -
15.07.2018 01:00:00 25,0 18,0 9 5 NE - 10 -
15.07.2018 00:00:00 25,0 19,0 9 5 NE - 10 -
14.07.2018 23:00:00 25,3 18,0 8 4 NE 1015,5 10 0,0
14.07.2018 22:00:00 25,0 20,0 2 1 - - 10 -
14.07.2018 21:00:00 27,0 19,0 8 4 SSW - 10 -
14.07.2018 20:00:00 27,6 18,6 11 6 WSW 1015,2 10 -
14.07.2018 19:00:00 30,0 16,0 11 6 SW - 10 -
14.07.2018 18:00:00 32,0 18,0 15 8 SW - 10 -
14.07.2018 17:00:00 31,9 18,7 15 8 S 1014,9 10 0,0
14.07.2018 16:00:00 33,0 20,0 16 9 SSW - 10 -
14.07.2018 15:00:00 34,0 17,0 8 4 SW - 10 -
14.07.2018 14:00:00 34,0 11,9 5 3 - 1016,1 10 -
14.07.2018 13:00:00 33,0 13,0 4 2 - - 10 -
14.07.2018 12:00:00 32,0 14,0 8 4 NW - 10 -
14.07.2018 11:00:00 29,9 15,3 4 2 - 1017,8 10 0,0
14.07.2018 10:00:00 27,0 16,0 4 2 - - 10 -
14.07.2018 09:00:00 25,0 16,0 5 3 NW - 10 -
14.07.2018 08:00:00 24,3 15,3 4 2 N 1017,5 10 -
14.07.2018 07:00:00 21,0 14,0 4 2 - - 10 -
14.07.2018 06:00:00 20,0 14,0 2 1 - - 10 -
14.07.2018 05:00:00 21,0 14,0 8 4 NNE 1016,9 10 0,0
14.07.2018 04:00:00 22,0 14,0 8 4 ENE - 10 -
14.07.2018 03:00:00 21,0 14,0 4 2 ENE - 10 -
14.07.2018 02:00:00 22,0 13,6 4 2 ESE 1017,6 10 -
14.07.2018 01:00:00 22,0 14,0 5 3 SE - 10 -
14.07.2018 00:00:00 23,0 14,0 5 3 SE - 10 -
13.07.2018 23:00:00 23,4 16,0 4 2 ESE 1017,7 30 0,0
13.07.2018 22:00:00 25,0 18,0 2 1 - - 10 -
13.07.2018 21:00:00 27,0 16,0 5 3 WSW - 10 -
13.07.2018 20:00:00 28,1 16,7 9 5 WSW 1017,3 10 -
13.07.2018 19:00:00 30,0 15,0 13 7 WSW - 10 -
13.07.2018 18:00:00 31,0 15,0 13 7 WSW - 10 -
13.07.2018 17:00:00 30,7 15,7 11 6 SW 1017,0 10 0,0
13.07.2018 16:00:00 32,0 16,0 11 6 SSW - 10 -
13.07.2018 15:00:00 31,0 18,0 13 7 SW - 10 -
13.07.2018 14:00:00 31,0 17,5 11 6 SSW 1017,6 10 -
13.07.2018 13:00:00 31,0 17,0 9 5 W - 10 -

tt = temperature
td = dewpoint
ff = wind speed
dd = wind direction
ppp = reduced air pressure
vv = visibility
rr = precipitation

Next stations